Location: ??
(34.7707°N, 135.6540°E)
Time: 21:54:22
(UTC+00:00)

Cosmos 1844 Rocket - Pass Details

Date: 09 April 2020
Orbit: 824 x 845 km, 71.0° (Epoch: 24 May)

Event Time Altitude Azimuth Distance (km) Brightness Sun altitude
Rises 20:03:14 0° 197° (SSW) 3,367 5.5 -6.7°
Reaches altitude 10° 20:05:39 10° 196° (SSW) 2,440 4.8 -6.2°
Maximum altitude 20:11:15 81° 110° (ESE) 853 2.9 -5.1°
Drops below altitude 10° 20:16:55 10° 23° (NNE) 2,466 5.7 -3.9°
Sets 20:19:23 0° 23° (NNE) 3,406 6.4 -3.4°
